TimePDT,TemperatureF,Dew PointF,Humidity,Sea Level PressureIn,VisibilityMPH,Wind Direction,Wind SpeedMPH,Gust SpeedMPH,PrecipitationIn,Events,Conditions,WindDirDegrees,DateUTC
12:52 AM,86.0,35.1,16,29.78,10.0,SSW,5.8,-,N/A,,Clear,200,2013-05-14 07:52:00
1:52 AM,84.9,34.0,16,29.77,10.0,South,5.8,-,N/A,,Clear,180,2013-05-14 08:52:00
2:52 AM,82.0,32.0,16,29.78,10.0,NNW,6.9,-,N/A,,Clear,330,2013-05-14 09:52:00
3:52 AM,77.0,32.0,19,29.77,10.0,North,6.9,-,N/A,,Clear,360,2013-05-14 10:52:00
4:52 AM,75.9,30.9,19,29.78,10.0,NNW,6.9,-,N/A,,Clear,340,2013-05-14 11:52:00
5:52 AM,75.0,30.9,20,29.79,10.0,WNW,4.6,-,N/A,,Clear,300,2013-05-14 12:52:00
6:52 AM,79.0,33.1,19,29.81,10.0,South,4.6,-,N/A,,Clear,180,2013-05-14 13:52:00
7:52 AM,82.9,39.0,21,29.83,10.0,SSW,9.2,-,N/A,,Clear,200,2013-05-14 14:52:00
8:52 AM,87.1,48.9,27,29.83,10.0,South,13.8,-,N/A,,Clear,180,2013-05-14 15:52:00
9:52 AM,91.9,46.9,21,29.83,10.0,South,17.3,-,N/A,,Clear,170,2013-05-14 16:52:00
10:52 AM,95.0,46.0,19,29.83,10.0,South,16.1,-,N/A,,Clear,170,2013-05-14 17:52:00
11:52 AM,98.1,45.0,16,29.82,10.0,SSE,19.6,-,N/A,,Clear,160,2013-05-14 18:52:00
12:52 PM,102.0,41.0,12,29.79,10.0,South,17.3,-,N/A,,Clear,170,2013-05-14 19:52:00
1:52 PM,104.0,39.0,11,29.77,10.0,SSE,18.4,-,N/A,,Clear,160,2013-05-14 20:52:00
2:52 PM,105.1,37.0,10,29.74,10.0,SSE,17.3,-,N/A,,Clear,160,2013-05-14 21:52:00
3:52 PM,107.1,28.0,6,29.72,10.0,SSW,18.4,26.5,N/A,,Clear,210,2013-05-14 22:52:00
4:52 PM,105.1,28.0,7,29.70,10.0,WSW,16.1,23.0,N/A,,Clear,240,2013-05-14 23:52:00
5:52 PM,104.0,28.9,7,29.69,10.0,SW,17.3,27.6,N/A,,Clear,230,2013-05-15 00:52:00
6:52 PM,102.0,30.9,8,29.69,10.0,WSW,19.6,-,N/A,,Clear,240,2013-05-15 01:52:00
7:52 PM,98.1,25.0,7,29.71,10.0,WSW,18.4,-,N/A,,Clear,240,2013-05-15 02:52:00
8:52 PM,93.9,21.9,7,29.74,10.0,WSW,13.8,-,N/A,,Clear,240,2013-05-15 03:52:00
9:52 PM,91.9,18.0,7,29.75,10.0,SW,12.7,-,N/A,,Clear,230,2013-05-15 04:52:00
10:52 PM,87.1,21.9,9,29.76,10.0,SSW,10.4,-,N/A,,Clear,200,2013-05-15 05:52:00
11:52 PM,80.1,30.9,17,29.77,10.0,South,13.8,-,N/A,,Clear,170,2013-05-15 06:52:00